www.pogodaiklimat.ru

Погода и климат >> Архив погоды >> Мексика >> Оризаба


ПОГОДА в Оризабе

  • Прогноз погоды в Оризабе
  • Монитор погоды в Оризабе

АРХИВ ПОГОДЫ в Оризабе

Время (UTC), дата Ветер
(напр.,м/с)
 
Видим.   Явления Облачность Т
(С)
Тd
(С)
f
(%)
Тe
(С)
Тes
(С)
Комфортность P
(гПа)
Po
(гПа)
Тmin
(С)
Tmax
(С)
R
(мм)
R24
(мм)
S
(см)
09 12.07 СЗ 1 30 км 3/0
[Ac trans]
+17.9 +17.2 96 +19 +19 1011.4 876.0
12 12.07 СЗ 1
{2}
30 км 5/0 2000 м
[Ac trans]
+16.9 +15.5 91 +18 +18 1012.2 875.9 +16.9 +27.0
15 12.07 В 1
{2}
30 км 10/0
[Cs]
+23.4 +16.1 64 +28 +37 душно 1016.0 879.0
18 12.07 В 2
{4}
30 км 10/1 700 м
[Cu hum Cs]
+27.0 +18.2 59 +32 +48 очень
душно
1012.3 876.2 +16.5 +27.2
21 12.07 В 3
{6}
30 км 5/4 700 м
[Cu med, cong Ci fib]
+28.2 +18.7 56 +33 +40 очень
душно
1008.9 874.6
00 13.07 В 4
{8}
20 км гроза, ливневой дождь 10/10 500 м
[Cb calv]
+25.4 +19.2 69 +31 +31 очень
душно
1008.0 874.7 +16.5 +25.4 0.0
03 13.07 штиль 0 30 км {гроза, морось} 9/0 2000 м
[Ac As]
+19.3 +18.3 94 +21 +21 комфорт 1010.2 877.7 0.7
06 13.07 штиль 0 30 км {гроза, морось} ясно +17.8 +17.1 96 +18 +18 1011.7 877.1 +16.5 +28.4 0.7
09 13.07 штиль 0 30 км ясно +17.2 +16.0 93 +17 +17 1011.9 876.1
12 13.07 штиль 0 30 км ясно +18.1 +10.3 60 +18 +18 1012.6 875.8 +17.2 +28.4
15 13.07 СВ 1
{2}
30 км 10/0
[Cs]
+25.2 +14.1 50 +28 +37 жарко 1012.8 876.2
18 13.07 В 2
{3}
30 км 10/0
[Cs]
+26.5 +17.3 57 +31 +48 душно 1012.5 876.5 +17.1 +26.7
21 13.07 В 2
{4}
30 км 9/1 600 м
[Cu hum Cs]
+26.2 +19.8 68 +32 +43 очень
душно
1010.2 875.7
00 14.07 В 1
{5}
30 км 6/6 700 м
[Cu med, cong]
+25.0 +19.1 70 +30 +31 душно 1009.1 875.6 +17.1 +27.1
03 14.07 штиль 0 20 км гроза без осадков 10/6 400 м
[Cb cap As op]
+22.5 +19.3 82 +28 +28 душно 1011.4 877.7
06 14.07 штиль 0 30 км {гроза, дождь} ясно +19.5 +18.5 94 +22 +22 комфорт 1012.0 877.6 +17.1 +27.1 1
09 14.07 штиль 0 30 км ясно +17.7 +16.7 94 +18 +18 1012.0 876.7
12 14.07 штиль 0 30 км 5/0
[Cc]
+17.4 +16.1 92 +17 +17 1013.2 877.0 +15.3 +27.1
15 14.07 В 1
{3}
30 км 3/0
[Cs]
+24.2 +16.3 61 +28 +38 душно 1015.0 878.3
18 14.07 В 2
{5}
30 км 10/1 700 м
[Cu hum Cs]
+27.1 +18.3 59 +32 +48 очень
душно
1014.7 878.5 +17.2 +27.4
21 14.07 В 2
{4}
30 км 9/4 700 м
[Cu med, cong Cs]
+27.8 +20.5 65 +35 +42 очень
душно
1010.9 876.4
00 15.07 В 2
{5}
30 км 8/5 700 м
[Cu med, cong Cs]
+25.0 +20.2 75 +31 +31 очень
душно
1010.3 876.7 +17.2 +27.9
03 15.07 С 1
{3}
15 км слаб. морось 10/10 300 м
[St]
+22.0 +20.0 88 +28 +28 душно 1011.1 877.6 0.1
06 15.07 С 1
{3}
15 км {дождь, морось} 9/9 300 м
[St]
+21.0 +20.7 98 +27 +27 душно 1012.8 878.4 +17.2 +27.9 20
09 15.07 СЗ 1 25 км ясно +19.3 +19.2 99 +23 +23 комфорт 1012.2 877.1
12 15.07 З 1
{2}
25 км 4/0
[Ci fib]
+17.5 +17.2 98 +19 +19 1013.4 877.4 +17.5 +27.9
15 15.07 З 1
{2}
30 км 10/0
[Cs]
+24.0 +17.2 66 +28 +37 душно 1014.4 878.1
18 15.07 В 2
{5}
30 км 10/3 700 м
[Cu hum Cs]
+26.2 +18.7 63 +31 +43 очень
душно
1014.4 878.4 +17.2 +26.6
21 15.07 ЮВ 3
{5}
30 км 6/4 700 м
[Cu med, cong Cs]
+27.0 +19.5 64 +33 +40 очень
душно
1012.1 877.3
00 16.07 В 1
{4}
30 км 9/5 600 м
[St As op]
+24.1 +19.9 77 +29 +30 душно 1010.4 876.6 +17.2 +27.2
03 16.07 СВ 1
{5}
15 км слаб. морось 10/10 300 м
[St]
+21.2 +20.1 93 +26 +26 душно 1012.2 878.2 0.7
06 16.07 штиль 0
{5}
20 км {морось} 9/5 400 м
[St Ac trans]
+20.3 +19.2 93 +24 +24 комфорт 1014.5 879.6 +17.2 +27.2 0.7
09 16.07 СЗ 1
{1}
30 км 1/1 400 м
[St]
+18.2 +16.9 92 +20 +20 1013.3 877.9
12 16.07 СЗ 1
{2}
30 км 9/0 2000 м
[Ac trans Cs]
+16.5 +14.3 87 +17 +17 1015.0 878.4 +16.5 +27.2
15 16.07 В 1
{2}
30 км 3/0
[Ci fib]
+23.2 +15.8 63 +28 +38 душно 1016.7 879.8
18 16.07 В 3
{5}
30 км 6/6 700 м
[Cu med, cong]
+25.2 +18.2 65 +30 +37 душно 1016.4 879.8 +16.3 +25.5
21 16.07 ЮВ 3
{6}
30 км 6/5 700 м
[Cb calv As op]
+28.0 +18.4 56 +33 +38 очень
душно
1013.1 877.9
00 17.07 СВ 1
{3}
30 км слаб. дождь {гроза} 10/5 600 м
[St As op]
+20.1 +18.8 92 +25 +25 комфорт 1014.3 879.3 +16.3 +28.0 2
03 17.07 СВ 2
{4}
30 км 8/0 2000 м
[Ac trans Cs]
+18.5 +17.0 91 +20 +20 1015.4 880.2
06 17.07 С 1
{4}
15 км слаб. морось 10/10 300 м
[St]
+18.1 +17.2 94 +19 +19 1016.6 880.4 +16.3 +28.0 0.0
09 17.07 С 1 30 км {морось} 9/0 2000 м
[]
+16.8 +16.7 99 +18 +18 1016.7 879.6 1
12 17.07 СЗ 1
{2}
20 км слаб. морось {дождь} 10/6 400 м
[St As op]
+17.2 +17.2 100 +18 +18 1018.0 880.3 +16.8 +28.0 3
15 17.07 СВ 2
{3}
28 км слаб. дождь {морось} 10/0 2000 м
[Ac As]
+20.8 +16.7 77 +25 +28 комфорт 1018.7 881.0 0.0
18 17.07 В 1
{3}
30 км {дождь, морось} 9/1 700 м
[Cu hum Ac und]
+24.4 +15.9 59 +28 +36 душно 1019.0 881.6 +16.8 +24.4 0.0
21 17.07 ЮВ 2
{5}
30 км 8/1 700 м
[Cu hum Ac und]
+26.2 +14.4 48 +29 +35 жарко 1015.8 879.9
00 18.07 В 1
{4}
30 км 6/4 600 м
[St Ac und]
+23.8 +16.2 62 +27 +28 жарко 1013.9 879.1 +16.8 +27.9
03 18.07 С 1
{5}
30 км {морось} 9/9 400 м
[St]
+20.5 +19.2 92 +26 +26 душно 1014.4 879.8 0.5
12 18.07 С 1
{2}
30 км 8/0 2000 м
[Ac und]
+17.1 +14.3 84 +18 +18 1015.8 878.9 +16.6 +27.9
15 18.07 С 1
{2}
30 км 10/0 2000 м
[Ac As]
+19.7 +15.3 76 +23 +26 комфорт 1018.2 880.6
18 18.07 В 3
{5}
30 км 4/0 2000 м
[Ac trans Ci fib]
+25.4 +15.0 53 +28 +43 жарко 1018.2 880.8 +16.6 +25.4
21 18.07 Ю 3
{6}
30 км 8/3 700 м
[Cu hum Ac und]
+26.0 +17.2 58 +30 +34 душно 1014.7 878.9
00 19.07 В 2
{5}
30 км 8/5 600 м
[St Ac und]
+22.3 +18.1 77 +27 +28 душно 1013.1 878.2 +16.6 +27.0
03 19.07 С 1
{4}
30 км зарница 8/4 500 м
[Cb cap Ac cuf]
+20.4 +16.6 79 +25 +25 комфорт 1014.1 879.4
06 19.07 СЗ 1 30 км {гроза, морось} 8/0
[Ac und]
+18.3 +15.1 82 +20 +20 1015.0 879.7 0.0

 

Местоположение метеостанции Оризаба (Мексика): широта 18.85 долгота -97.10 высота над уровнем моря 1259 м.

В архиве по умолчанию представлена погода в Оризабе за последнюю неделю. Архивные данные за месяц целиком и за предыдущие месяцы, начиная с января 2011 года, Вы можете получить, выбрав интересующий диапазон дат из раскрывающегося списка и нажав кнопку "Ввод!".


*Определитесь, кто Вы:
робот инопланетянин человек

Внимание! Время в таблицах - всемирное. Для получения местного времени необходимо прибавить поправку, которая равна -6 ч.

Смотрите также архив погоды в соседних городах и на ближайших метеорологических станциях:

Погода в Кордове (Мексика) (19 км)
Погода в Халапе (Мексика) (80 км)
Погода в Веракрусе (Мексика) (109 км)
Погода в Пуэбле (Мексика) (114 км)
Погода в Тлашкала аэропорту (Мексика) (130 км)
Погода в Тлашкале (Мексика) (132 км)
Погода в Уахуапан-де-Леоне (Мексика) (137 км)
Погода в Тулансинго (Мексика) (191 км)
Погода в Оахаке (Мексика) (204 км)
Погода в Сакатепеке (Мексика) (219 км)

Пояснения к столбцам:

Ветер - указаны скорость ветра в м/с - средняя за 10 мин, порывы в срок и между сроками (в фигурных скобках) и направление, откуда дует ветер: С - северный, СВ - северо-восточный, В - восточный, ЮВ - юго-восточный, Ю - южный, ЮЗ - юго-западный, З - западный, СЗ - северо-западный.
Видимость - горизонтальная дальность видимости в метрах или километрах. При видимости от 1 до 10 км при отсутствии осадков обычно наблюдается дымка, при ухудшении видимости до 1 км и менее - туман. В сухую погоду видимость может ухудшаться дымом, пылью или мглою.
Явления - указаны атмосферные явления, наблюдавшиеся в срок или в последний час перед сроком; фигурными скобками обозначены явления, наблюдавшиеся между сроками (за 1-3 часа до срока); квадратными скобками обозначены град или гололедные отложения с указанием их диаметра в мм.
Облачность - указаны через наклонную черту общая и нижняя облачность в баллах и высота нижней границы облаков в метрах; квадратными скобками обозначены формы облаков: Ci - перистые, Cs - перисто-слоистые, Cc - перисто-кучевые, Ac - высококучевые, As - высокослоистые, Sc - слоисто-кучевые, Ns - слоисто-дождевые, Cu - кучевые, Cb - кучево-дождевые. Подробнее классификацию облаков см. в Атласе облаков (PDF).
T - Температура воздуха - температура, измеренная на высоте 2 м над землей.
Td - Температура точки росы - температура, при понижении до которой содержащийся в воздухе водяной пар достигнет насыщения.
f - Относительная влажность воздуха - влажноcть воздуха, измеренная на высоте 2 м над землей.
Te - Эффективная температура - температура, которую ощущает одетый по сезону человек в тени. Характеристика душности погоды. При расчете учитывается влияние влажности воздуха и скорости ветра на теплоощущения человека.
Tes - Эффективная температура на солнце - температура, которую ощущает человек, с поправкой на солнечный нагрев. Характеристика знойности погоды. Зависит от высоты солнца над горизонтом, облачности и скорости ветра. Ночью, в пасмурную погоду, а также при ветре 12 м/с и более поправка равна нулю.
P - Атмосферное давление - приведенное к уровню моря атмосферное давление.
Po - Атмосферное давление - измеренное на уровне метеостанции атмосферное давление.
Tmin - Минимальная температура - минимум температуры воздуха на высоте 2 м над землей.
Tmax - Максимальная температура - максимум температуры воздуха на высоте 2 м над землей.
R - Количество осадков - Количество выпавших осадков за период времени, мм. При наведении курсора мыши на число - период времени, за который выпало указанное количество осадков.
R24 - Количество осадков - Количество выпавших осадков за 24 часа, мм.
S - Снежный покров - Высота снежного покрова, см. При наведении курсора мыши на число - состояние снежного покрова и степень покрытия местности в баллах.